Temp
15 15 15 15 15 15 16 16 16 16 16 17 18 19 19 19 20 21 21 25 25 25 25 25 25 25 25 24 26 24 20 20 24 25 25 26 26 24 25 25 24 26 23 23 23
15 15 15 15 15 15 15 16 15 16 16 17 18 19 19 19 19 20 25 25 25 25 25 24 23 24 23 24 23 21 19 23 26 24 24 24 24 25 25 23 23 23 22 22 22
14 15 15 15 15 15 15 15 15 16 16 17 18 19 19 19 18 23 26 25 26 26 25 25 25 26 24 25 24 23 21 24 24 24 23 24 23 25 24 24 23 23 22 22 23
14 14 15 15 15 15 15 15 15 16 17 17 18 18 19 19 22 25 25 25 26 25 25 25 25 25 24 24 24 24 24 24 25 24 24 24 24 23 23 22 23 22 22 22 19
14 14 14 14 15 15 15 14 15 16 17 18 18 18 19 19 20 24 25 25 25 25 24 24 24 24 24 23 25 24 23 24 25 22 23 23 22 22 22 21 21 22 19 19 19
14 14 13 13 14 14 14 14 15 16 17 18 18 18 17 19 24 24 24 24 25 24 25 25 25 25 24 24 24 23 23 22 23 24 23 22 22 22 22 21 22 19 19 18 18
14 14 13 13 13 14 14 14 15 16 17 18 17 17 18 20 24 24 23 24 25 25 25 26 26 24 23 23 23 24 22 21 21 22 23 22 21 21 22 22 21 18 17 17 17
14 13 13 13 13 13 13 14 15 16 17 17 17 16 17 23 24 24 24 24 24 25 25 25 26 25 24 23 22 23 21 21 22 21 22 22 20 20 20 21 19 17 15 16 17
13 13 13 13 13 13 13 14 16 16 17 16 17 17 19 23 23 24 24 24 25 25 25 25 25 23 23 21 19 20 19 21 23 22 21 21 21 22 20 20 18 16 15 16 16
13 13 13 13 13 13 13 14 16 16 17 16 17 18 19 22 24 24 24 24 24 23 23 23 21 20 19 18 18 20 21 21 22 22 21 20 20 21 20 21 17 15 14 15 15
12 12 12 12 12 13 13 14 13 14 16 16 17 18 22 23 23 24 24 24 23 22 20 21 19 20 20 20 21 22 22 21 21 23 22 20 20 20 19 19 16 14 14 14 15
12 12 12 12 12 13 13 13 17 19 17 17 18 19 22 22 22 23 24 22 21 20 21 19 18 21 22 23 23 22 22 20 21 21 21 20 20 19 19 19 18 15 14 14 15
12 12 12 12 12 11 12 15 18 19 17 19 19 19 21 22 21 22 22 21 21 20 20 18 21 21 22 23 22 22 21 20 20 21 20 21 18 19 20 20 18 16 16 15 14
12 12 12 12 11 12 11 18 18 18 15 17 17 19 21 21 20 22 23 22 21 20 20 20 22 22 22 22 22 21 22 22 22 20 18 20 17 19 19 19 18 16 15 15 14
12 12 12 12 14 13 16 19 18 18 15 20 19 22 20 20 21 21 23 22 20 21 21 20 21 21 21 21 22 21 22 22 22 20 19 19 18 18 18 19 17 14 14 15 14
12 12 12 12 14 16 19 18 17 15 14 19 19 19 18 19 21 20 21 22 22 22 22 20 22 22 21 22 22 21 21 20 20 17 16 17 18 18 17 18 17 16 15 15 14
12 12 12 11 14 17 18 16 15 13 20 18 18 19 19 19 20 20 19 19 19 18 18 21 21 22 21 20 20 20 18 18 18 17 17 19 18 19 19 18 20 18 15 14 15
12 12 12 12 16 17 18 16 14 16 18 19 19 18 19 19 19 20 18 18 18 20 19 18 19 20 20 20 20 18 19 18 18 18 19 19 18 20 20 19 19 20 17 16 14
12 11 11 12 15 17 16 15 14 18 20 18 18 17 17 19 19 19 18 18 20 19 19 18 19 20 19 21 20 19 18 19 19 18 17 18 19 20 20 19 17 16 16 16 15
11 11 11 13 14 15 15 15 16 20 19 18 17 17 17 18 19 19 18 20 20 21 20 21 19 20 19 20 19 20 19 19 17 18 19 18 20 19 19 19 19 16 16 16 15
11 11 13 13 14 11 14 15 18 19 20 19 18 17 18 17 18 18 19 20 21 20 20 20 19 18 18 17 18 18 18 18 17 16 17 17 18 20 18 17 17 17 15 15 15
12 12 12 14 11 12 14 15 19 18 18 19 19 19 18 17 17 18 18 20 20 19 20 19 18 16 17 19 18 18 18 18 17 19 17 15 17 20 21 18 17 17 16 14 15
12 9 12 14 12 12 15 16 18 18 17 18 18 19 21 18 17 18 19 18 19 19 19 19 18 17 19 19 18 18 19 19 18 16 17 16 17 19 19 21 18 17 16 14 13
11 10 10 9 11 13 14 16 16 18 18 19 19 19 20 19 19 18 17 18 18 19 18 19 18 18 19 20 18 18 19 18 18 16 17 16 18 19 19 20 20 18 15 13 13
11 11 13 11 12 12 16 16 16 16 17 18 18 18 18 18 19 18 17 16 17 16 18 18 18 20 20 20 20 20 20 18 17 18 17 20 18 19 20 18 17 16 13 13 12
10 11 11 12 13 13 14 15 16 16 17 17 17 17 17 19 19 18 17 17 17 16 17 17 18 19 20 20 19 19 19 18 18 19 17 17 17 18 19 18 17 15 14 14 13
11 13 14 12 13 13 14 16 16 17 17 19 18 18 17 18 18 17 18 17 17 16 16 16 17 17 17 19 18 17 17 18 18 18 18 17 19 19 19 17 18 15 14 13 12
Height
818 818 819 820 821 821 821 821 820 820 819 819 817 815 815 813 811 809 808 805 804 805 806 807 807 806 806 806 804 806 835 840 826 817 816 802 807 803 801 806 805 801 805 804 809
815 815 816 817 818 819 818 819 819 819 819 816 816 813 813 812 809 805 803 803 804 804 805 806 807 806 810 808 809 820 839 826 810 810 815 810 809 807 810 814 813 810 809 810 811
811 812 813 814 814 816 816 817 817 817 817 814 815 812 812 812 810 798 797 801 802 803 804 805 805 804 811 807 810 814 831 813 811 808 807 809 811 805 812 817 812 813 812 811 812
809 810 811 811 811 812 813 814 814 815 815 812 813 811 811 812 818 796 795 799 801 803 804 802 803 809 813 816 808 819 811 811 805 806 807 812 809 812 810 813 807 808 808 809 809
805 806 807 807 808 809 810 811 813 812 812 811 811 810 809 812 805 797 796 798 800 802 803 803 807 808 815 814 809 814 813 808 804 807 807 807 813 813 810 808 806 806 808 810 809
801 802 804 805 805 807 808 809 810 810 810 809 811 811 810 814 798 797 796 797 799 801 801 802 804 802 808 809 814 810 811 811 806 806 806 812 812 812 805 804 805 809 811 811 811
797 798 800 802 803 804 806 807 808 807 809 808 810 810 809 802 796 796 797 796 798 799 801 801 800 804 807 813 807 807 817 815 808 806 808 808 818 816 804 803 808 812 813 812 812
792 794 796 798 800 802 803 804 805 806 808 808 809 810 807 794 793 795 796 796 797 798 800 800 800 803 806 805 810 816 819 829 808 806 807 812 828 808 803 804 812 815 816 814 815
786 789 792 795 797 800 802 803 804 805 806 806 808 809 805 792 791 792 793 794 796 798 800 800 801 806 808 820 833 826 837 827 813 805 810 815 819 805 802 805 813 815 817 817 817
781 785 789 791 794 797 799 802 804 805 806 806 806 810 796 791 787 788 790 793 796 799 802 802 808 819 821 832 848 834 828 822 823 811 809 816 817 807 802 803 811 815 817 818 819
775 780 785 788 791 794 798 802 808 808 802 797 795 793 786 786 786 785 787 792 795 801 815 807 823 827 819 819 817 816 819 824 815 804 811 815 814 807 804 804 813 817 816 818 820
770 775 780 785 788 791 794 795 791 790 798 789 789 789 784 786 789 785 786 795 800 812 807 819 827 811 806 806 809 813 818 824 814 806 812 811 811 803 800 800 802 810 815 815 819
764 771 776 781 786 788 786 786 786 787 794 784 780 783 782 785 788 785 785 791 799 808 811 823 808 799 803 806 813 814 818 821 822 810 809 809 816 805 794 793 798 805 806 809 815
758 765 772 778 787 782 784 784 786 789 808 790 782 776 777 780 788 779 782 788 796 805 806 810 796 801 803 809 810 821 806 808 809 822 835 812 838 807 798 797 799 805 807 808 813
752 759 766 769 770 776 776 782 788 790 825 772 774 765 767 781 778 779 778 784 797 796 799 808 800 800 804 805 802 812 803 806 808 820 825 821 832 809 801 801 801 807 806 806 807
747 754 763 768 766 766 773 780 789 811 818 778 771 773 779 778 776 778 779 779 783 792 791 800 790 792 798 797 799 801 806 811 815 831 846 822 824 811 807 794 798 801 802 802 805
741 749 757 761 758 764 770 779 806 815 769 778 777 771 776 779 781 782 787 793 800 813 812 799 798 790 793 805 803 806 820 837 841 846 839 807 821 797 787 784 779 788 797 800 802
736 747 753 756 755 762 767 780 800 779 772 764 768 773 779 774 780 781 789 796 791 792 805 817 817 799 793 798 807 817 817 830 837 837 825 809 815 794 774 770 772 776 784 793 800
732 746 750 750 752 758 766 778 778 763 754 765 769 781 783 774 776 782 787 792 784 787 802 809 809 792 791 788 796 806 816 806 819 818 831 812 795 781 773 774 778 783 788 792 796
726 739 743 746 751 756 764 762 758 745 749 757 773 772 782 777 778 780 788 774 779 775 778 785 805 795 797 792 795 797 800 817 824 829 827 814 798 797 785 781 779 785 785 789 794
721 733 733 744 751 758 754 755 747 744 742 755 761 770 767 773 773 779 778 766 763 770 773 784 792 806 800 804 801 805 807 806 811 821 825 827 809 777 782 779 780 781 784 785 789
713 727 729 737 753 751 751 746 737 745 746 749 752 757 762 767 773 775 775 762 755 761 776 777 793 810 800 788 787 793 798 798 816 808 813 821 810 770 766 771 772 773 775 780 782
709 726 730 732 738 743 744 743 737 743 749 752 754 751 746 761 773 768 764 762 757 761 769 774 792 807 798 795 791 792 788 788 795 805 807 820 806 771 770 764 768 772 774 778 781
706 720 732 733 732 735 739 739 743 736 740 741 748 747 750 754 754 765 769 764 760 762 765 767 782 787 792 784 786 794 786 786 793 807 801 804 791 778 774 769 767 767 772 777 780
697 702 700 716 725 733 730 731 739 741 740 744 750 750 754 760 757 760 765 768 766 767 765 771 782 774 772 770 774 776 779 784 791 784 797 778 788 774 769 770 766 765 773 777 782
691 694 703 705 722 730 730 726 730 736 737 744 747 748 751 750 751 757 760 764 766 770 771 772 779 772 776 772 774 778 776 779 781 778 786 783 779 766 761 762 764 766 770 773 776
683 682 693 707 714 724 718 717 723 728 732 732 739 744 749 747 744 745 745 749 753 764 772 775 780 783 787 773 779 789 777 773 771 770 769 783 760 757 761 763 760 767 771 775 776
Wind_Speed
14 13 12 11 10 10 9 10 9 9 9 10 9 7 11 14 16 7 5 5 6 4 4 3 5 7 9 3 2 3 3 3 4 3 3 2 3 6 3 4 5 4 4 7 18
16 15 14 14 12 11 10 10 9 10 10 9 10 6 10 14 16 8 9 8 6 6 8 6 4 8 1 2 2 4 2 3 2 2 3 3 5 4 4 6 5 4 7 11 13
17 17 16 15 14 12 11 10 10 10 10 8 9 6 9 13 5 6 11 12 7 8 8 7 13 5 4 3 2 2 4 2 2 3 5 2 5 2 3 3 2 1 1 2 3
19 19 17 16 15 13 12 11 11 9 10 9 8 7 8 5 4 2 10 13 9 8 5 5 3 1 3 2 4 1 5 4 1 3 3 2 2 3 2 6 4 4 3 3 6
19 18 17 16 14 14 12 11 12 10 8 9 6 8 3 1 7 4 8 11 10 8 6 1 3 2 0 3 0 2 4 4 2 7 5 3 6 4 5 6 6 6 9 6 5
19 18 18 16 15 14 13 12 12 10 8 7 5 7 4 3 3 2 7 11 8 7 5 3 1 1 2 3 0 2 3 7 5 5 4 6 4 6 5 7 6 8 7 6 5
19 20 19 18 17 15 13 12 12 9 8 5 4 6 5 10 5 3 4 8 10 7 2 6 4 4 3 6 2 2 4 7 7 5 4 5 4 7 5 6 7 8 7 7 6
21 21 19 18 17 14 13 12 12 8 8 4 4 4 6 4 12 12 8 7 6 5 2 2 4 0 1 2 5 3 1 1 6 8 3 6 7 6 8 8 8 8 7 7 5
22 21 19 18 16 14 13 10 8 7 7 4 4 5 6 5 10 13 11 6 7 4 4 2 3 3 1 1 5 2 4 3 2 7 4 4 4 3 8 8 9 9 8 7 6
22 22 19 17 16 14 10 6 3 4 4 3 6 2 7 5 6 9 15 13 5 5 2 2 2 1 2 3 4 4 3 3 3 5 5 5 8 6 7 7 9 9 9 8 6
22 21 19 17 17 15 12 6 4 2 5 8 8 5 3 3 3 6 18 9 5 4 5 4 3 5 10 7 12 4 2 3 4 3 5 7 7 10 11 6 8 8 9 9 7
24 22 20 19 17 16 14 4 6 2 4 16 13 11 16 2 2 4 16 6 6 6 4 4 7 9 8 5 2 3 1 5 5 2 2 5 9 9 7 8 9 12 9 11 7
23 23 22 20 17 18 18 15 0 5 1 4 12 9 5 9 5 4 11 5 5 6 7 7 6 8 4 3 3 3 3 4 6 2 4 2 7 6 5 5 5 11 11 11 11
26 26 25 22 13 13 10 30 6 8 1 6 6 7 8 3 4 8 8 7 4 12 7 7 11 8 4 4 4 3 3 4 4 3 3 3 5 6 6 7 7 13 12 13 11
29 29 30 33 10 14 13 23 10 1 3 3 6 2 7 11 5 6 8 4 8 5 7 7 5 5 4 6 5 6 2 1 1 1 3 3 1 6 6 5 7 10 10 12 14
32 33 34 33 7 22 12 24 6 4 7 4 4 7 8 7 1 3 4 3 4 3 1 6 2 4 5 2 1 4 2 3 3 3 3 7 7 5 5 10 5 6 8 14 13
33 34 38 29 7 23 24 10 3 5 3 5 5 5 13 9 5 4 6 6 6 4 5 4 4 3 4 3 4 2 4 1 1 1 6 2 5 8 9 7 16 16 11 11 13
33 35 38 28 13 21 26 4 5 9 6 3 5 7 6 7 7 6 6 7 5 4 4 5 5 10 5 7 6 6 6 4 5 3 4 5 5 6 3 7 12 14 15 15 13
36 35 27 33 14 20 8 10 9 7 9 7 5 5 5 6 6 6 6 5 9 9 7 7 5 2 3 2 8 4 5 4 1 2 2 4 5 6 3 6 7 10 10 15 14
32 23 23 30 16 9 10 10 7 4 6 5 6 7 8 11 6 13 13 9 10 15 8 2 1 1 1 2 1 4 1 2 1 3 4 5 4 4 4 6 5 9 14 12 11
18 7 18 23 14 3 13 9 7 2 5 5 5 7 6 7 7 9 7 8 18 13 15 6 4 0 3 6 8 3 2 3 3 5 4 1 5 4 7 8 9 8 9 12 14
13 6 25 28 4 5 8 7 5 5 2 2 3 3 8 9 8 7 9 5 4 9 13 7 4 4 8 3 4 5 7 6 4 4 3 4 5 4 3 9 10 10 9 10 12
10 3 12 22 9 11 6 8 8 7 5 5 5 5 1 7 5 6 6 1 1 5 10 7 4 2 1 1 1 4 5 5 2 3 5 4 5 2 5 1 5 7 7 8 9
5 5 2 2 2 9 12 18 5 6 4 4 4 3 2 4 1 8 3 0 2 3 4 5 4 6 6 4 4 4 6 6 6 3 3 7 5 7 5 4 5 6 7 9 10
2 4 7 15 17 5 19 11 15 7 5 9 4 5 6 5 4 4 3 2 4 1 2 5 5 3 3 5 5 5 4 7 7 8 6 11 8 7 2 8 8 7 7 11 12
5 5 4 12 17 16 12 12 20 14 14 6 6 9 7 4 6 8 7 4 5 2 5 1 3 3 2 5 5 4 7 7 7 8 7 8 14 8 3 5 4 5 11 14 14
7 1 10 13 21 16 12 22 15 15 6 9 6 4 5 6 6 3 5 5 9 8 6 6 4 2 4 2 2 4 9 12 7 6 8 9 14 4 5 6 5 7 8 8 9
Wind_Direction
243 247 254 263 274 279 281 286 295 293 297 301 293 311 321 322 317 295 249 251 204 188 182 166 230 250 274 304 3 46 47 322 300 356 115 64 81 1 360 24 346 337 126 159 152
240 244 251 261 264 270 273 275 282 288 292 297 290 311 325 326 319 255 223 223 226 189 192 207 249 257 287 238 320 87 96 259 342 28 48 74 76 9 41 352 349 55 51 139 157
237 242 245 253 259 263 265 265 272 280 287 293 288 309 326 329 294 247 206 218 214 194 207 266 260 189 211 148 231 206 203 268 11 104 54 36 21 31 83 300 230 159 95 73 157
240 244 242 244 251 252 259 260 268 268 281 290 286 308 322 319 220 331 187 189 197 189 228 296 311 283 220 193 221 83 287 297 259 68 47 3 342 323 217 230 154 100 117 58 38
239 244 246 245 245 250 251 253 259 260 275 286 284 314 336 216 255 269 181 184 181 181 226 251 289 253 14 329 12 182 266 272 283 162 185 211 252 235 253 181 146 88 61 49 28
238 240 243 244 245 247 247 249 257 264 266 279 290 310 259 236 228 296 184 184 180 190 247 260 8 198 20 310 121 191 318 285 282 247 228 183 249 153 281 166 130 103 93 61 50
237 239 238 237 242 241 242 245 253 256 261 261 291 307 270 231 130 357 197 203 190 209 267 286 80 56 334 325 274 325 303 312 256 231 212 144 296 222 198 156 144 121 106 76 48
237 237 235 233 235 236 237 239 244 246 251 221 262 263 251 256 241 235 219 220 215 216 176 72 83 328 187 314 347 269 72 308 310 136 186 109 273 223 193 164 139 136 112 88 48
233 230 230 226 225 226 229 237 236 244 248 211 255 205 260 233 205 219 204 194 184 176 115 100 83 180 34 66 353 320 249 207 247 191 142 181 252 263 190 170 157 145 126 105 69
229 222 223 220 214 217 213 217 224 238 222 228 263 358 270 228 190 205 198 193 159 122 68 142 94 136 2 95 237 228 251 320 207 238 172 196 253 223 220 168 166 151 132 110 102
217 214 212 211 210 200 184 156 45 272 210 193 190 216 20 198 159 178 187 173 136 122 190 207 117 210 235 211 246 225 242 303 283 231 170 232 249 248 219 195 148 162 138 126 130
212 204 203 207 205 190 185 187 213 185 230 234 253 242 254 353 331 247 170 143 159 188 194 359 223 225 245 208 264 295 321 281 297 223 156 257 263 259 184 193 185 162 156 140 136
205 200 197 198 190 190 199 197 10 349 257 238 209 215 216 167 213 242 149 177 165 187 194 186 228 204 195 198 238 240 206 250 222 249 269 315 296 271 192 175 183 161 157 145 149
198 194 192 182 175 191 214 200 246 348 329 261 190 242 182 182 226 223 199 154 219 197 204 228 242 211 186 196 183 253 213 248 245 67 253 127 283 299 197 190 158 160 162 155 151
195 191 190 183 167 170 200 189 212 104 288 226 160 141 173 164 171 199 199 189 202 204 158 236 185 158 174 207 197 230 177 231 268 210 351 273 199 257 136 201 164 177 174 167 162
195 189 192 189 216 196 172 177 165 70 243 169 147 177 132 204 163 103 131 112 153 178 285 238 251 132 191 92 151 134 87 19 31 84 290 221 172 267 187 201 175 183 186 171 165
191 190 189 186 189 179 176 149 98 185 235 191 178 170 169 175 199 149 154 164 163 160 215 216 210 151 139 103 16 64 76 1 294 191 230 311 149 251 223 201 191 184 181 174 165
191 188 195 193 163 178 164 117 178 193 212 182 141 143 189 142 219 166 148 186 245 156 149 169 279 170 194 169 181 195 170 179 230 202 265 345 236 255 299 211 196 188 178 169 170
185 184 190 210 161 174 167 185 190 205 183 145 92 144 203 209 165 146 203 206 204 192 176 178 241 44 72 138 136 208 196 190 256 264 109 238 281 314 354 51 147 168 164 181 176
168 170 197 204 190 157 186 200 196 152 116 122 152 173 185 194 156 172 181 219 214 201 202 207 71 289 349 68 166 164 219 134 6 234 248 284 248 242 250 233 167 172 184 183 176
153 154 199 188 164 105 199 190 187 139 118 146 185 177 192 174 161 177 203 240 200 191 192 188 129 320 104 212 186 149 221 215 160 160 186 268 273 238 211 209 203 197 191 180 182
149 164 160 161 145 189 202 192 149 140 62 120 121 207 180 168 175 191 213 196 180 164 189 183 133 183 201 270 193 185 192 173 146 244 225 149 274 244 231 198 188 200 186 185 183
148 112 154 169 179 188 163 222 185 149 162 173 200 234 164 159 169 196 204 319 176 131 157 170 201 141 342 338 317 215 205 193 148 110 215 132 262 291 311 21 227 201 188 177 154
143 136 150 107 231 168 184 201 191 160 166 128 207 172 136 144 216 184 152 342 81 83 111 106 164 176 189 195 138 195 208 196 161 171 177 218 261 278 282 258 234 206 182 166 154
157 173 172 186 202 184 189 175 187 179 179 180 194 180 180 167 146 145 131 107 33 81 102 144 196 231 218 227 172 175 191 206 195 220 186 256 208 250 213 232 228 215 152 143 149
150 149 162 165 185 197 200 200 188 188 174 194 153 197 210 189 187 180 131 167 182 148 165 196 212 174 229 191 207 214 222 220 224 242 243 248 268 190 151 116 18 182 166 169 171
206 152 150 157 180 192 209 199 196 181 189 182 176 163 203 221 139 116 130 160 156 145 165 152 168 124 244 169 58 298 215 218 220 215 207 219 247 177 188 163 160 128 170 196 178